Overview Statistics Trail Chart Weather Telemetry Raw packets
 

This is the latest recevied weather packets stored in our database for station/object KE6YLF. If no packets are shown the sender has not sent any weather packets the latest 10 day(s).

<< 5 6 7 8 9 10 11 >>
Time Temp. Humidity Pressure Rain* Wind** Luminosity Snow
1788651932 37.22° C 31% 1075.3 hPa 0 mm - - -
1788651626 36.67° C 32% 1075.3 hPa 0 mm - - -
1788651321 36.67° C 33% 1075.4 hPa 0 mm - - -
1788651042 36.11° C 33% 1075.3 hPa 0 mm - - -
1788650716 36.11° C 33% 1075.3 hPa 0 mm - - -
1788650412 36.67° C 33% 1075.1 hPa 0 mm - - -
1788650107 37.78° C 31% 1075.4 hPa 0 mm - - -
1788649804 37.22° C 32% 1075.3 hPa 0 mm - - -
1788649502 37.78° C 32% 1075.2 hPa 0 mm - - -
1788649200 37.22° C 32% 1075.3 hPa 0 mm - - -
1788648895 36.67° C 33% 1075.3 hPa 0 mm - - -
1788648591 36.67° C 33% 1075.4 hPa 0 mm - - -
1788648286 36.67° C 32% 1075.4 hPa 0 mm - - -
1788647985 36.67° C 33% 1075.2 hPa 0 mm - - -
1788647683 37.22° C 32% 1075.4 hPa 0 mm - - -
1788647378 37.22° C 31% 1075.4 hPa 0 mm - - -
1788647078 37.22° C 31% 1075.4 hPa 0 mm - - -
1788646773 37.22° C 31% 1075.3 hPa 0 mm - - -
1788646470 37.22° C 31% 1075.4 hPa 0 mm - - -
1788646166 38.33° C 30% 1075.6 hPa 0 mm - - -
1788645862 38.89° C 29% 1075.6 hPa 0 mm - - -
1788645560 38.33° C 30% 1075.7 hPa 0 mm - - -
1788645256 37.78° C 30% 1075.7 hPa 0 mm - - -
1788644953 38.89° C 29% 1075.8 hPa 0 mm - - -
1788644648 38.33° C 29% 1075.7 hPa 0 mm - - -

* Rain latest hour (hover to see other rain measurements)
** Current wind speed in m/s (hover to see current wind gust speed)